Tiempo cada hora Abano Terme

Hoy, 24 Junio, Jueves

Tiempo Temperatura Precipitaciones Viento Presión Humedad
00:00 +20°C° 0.2 mm 2 mps 760 mmHg 89%
01:00 +20°C° 0.2 mm 2 mps 760 mmHg 89%
02:00 +21°C° 0 mm 1 mps 760 mmHg 89%
03:00 +21°C° 0 mm 1 mps 760 mmHg 88%
04:00 +21°C° 0 mm 1 mps 760 mmHg 88%
05:00 +22°C° 0 mm 1 mps 760 mmHg 84%
06:00 +23°C° 0 mm 1 mps 760 mmHg 81%
07:00 +24°C° 0 mm 1 mps 760 mmHg 77%
08:00 +26°C° 0 mm 1 mps 760 mmHg 71%
09:00 +27°C° 0 mm 2 mps 760 mmHg 65%
10:00 +29°C° 0 mm 2 mps 761 mmHg 59%
11:00 +30°C° 0 mm 2 mps 760 mmHg 56%
12:00 +31°C° 0 mm 2 mps 760 mmHg 53%
13:00 +32°C° 0 mm 2 mps 760 mmHg 50%
14:00 +32°C° 0 mm 2 mps 759 mmHg 49%
15:00 +32°C° 0 mm 2 mps 759 mmHg 47%
16:00 +33°C° 0 mm 1 mps 758 mmHg 45%
17:00 +31°C° 0 mm 2 mps 758 mmHg 52%
18:00 +30°C° 0 mm 2 mps 758 mmHg 59%
19:00 +28°C° 0 mm 3 mps 758 mmHg 67%
20:00 +27°C° 0.1 mm 2 mps 759 mmHg 67%
21:00 +25°C° 0.1 mm 2 mps 759 mmHg 67%
22:00 +24°C° 0.1 mm 2 mps 759 mmHg 67%
23:00 +22°C° 0 mm 3 mps 759 mmHg 65%

Mañana, 25 Junio, Viernes

Tiempo Temperatura Precipitaciones Viento Presión Humedad
00:00 +21°C° 0 mm 3 mps 759 mmHg 64%
01:00 +20°C° 0 mm 3 mps 759 mmHg 63%
02:00 +19°C° 0 mm 3 mps 759 mmHg 66%
03:00 +19°C° 0 mm 3 mps 759 mmHg 69%
04:00 +18°C° 0 mm 3 mps 759 mmHg 72%
05:00 +19°C° 0 mm 3 mps 759 mmHg 72%
06:00 +20°C° 0 mm 3 mps 759 mmHg 72%
07:00 +21°C° 0 mm 3 mps 760 mmHg 72%
08:00 +24°C° 0 mm 3 mps 760 mmHg 67%
09:00 +26°C° 0 mm 3 mps 760 mmHg 61%
10:00 +27°C° 0 mm 2 mps 760 mmHg 56%
11:00 +28°C° 0.1 mm 2 mps 760 mmHg 52%
12:00 +29°C° 0.1 mm 2 mps 759 mmHg 48%
13:00 +30°C° 0.1 mm 2 mps 759 mmHg 45%
14:00 +30°C° 0.1 mm 2 mps 759 mmHg 42%
15:00 +30°C° 0.1 mm 1 mps 758 mmHg 40%
16:00 +31°C° 0.1 mm 1 mps 758 mmHg 37%
17:00 +29°C° 0 mm 1 mps 758 mmHg 45%
18:00 +28°C° 0 mm 2 mps 758 mmHg 52%
19:00 +27°C° 0 mm 2 mps 758 mmHg 60%
20:00 +25°C° 0 mm 2 mps 758 mmHg 63%
21:00 +24°C° 0 mm 1 mps 759 mmHg 66%
22:00 +22°C° 0 mm 1 mps 759 mmHg 69%
23:00 +22°C° 0 mm 1 mps 759 mmHg 71%

Pasado mañana, 26 Junio, Sábado

Tiempo Temperatura Precipitaciones Viento Presión Humedad
00:00 +21°C° 0 mm 1 mps 760 mmHg 72%
01:00 +21°C° 0 mm 1 mps 760 mmHg 74%
02:00 +20°C° 0 mm 2 mps 760 mmHg 75%
03:00 +19°C° 0 mm 2 mps 760 mmHg 77%
04:00 +19°C° 0 mm 2 mps 760 mmHg 78%
05:00 +20°C° 0 mm 2 mps 760 mmHg 75%
06:00 +22°C° 0 mm 1 mps 761 mmHg 71%
07:00 +23°C° 0 mm 1 mps 761 mmHg 68%
08:00 +25°C° 0 mm 1 mps 761 mmHg 63%
09:00 +26°C° 0 mm 1 mps 761 mmHg 58%
10:00 +28°C° 0 mm 1 mps 761 mmHg 53%
11:00 +29°C° 0 mm 1 mps 760 mmHg 50%
12:00 +30°C° 0 mm 1 mps 760 mmHg 47%
13:00 +31°C° 0 mm 1 mps 760 mmHg 44%
14:00 +31°C° 0 mm 1 mps 760 mmHg 43%
15:00 +31°C° 0 mm 1 mps 759 mmHg 42%
16:00 +31°C° 0 mm 1 mps 759 mmHg 41%
17:00 +30°C° 0 mm 1 mps 759 mmHg 47%
18:00 +29°C° 0 mm 1 mps 759 mmHg 53%
19:00 +28°C° 0 mm 2 mps 759 mmHg 59%
20:00 +26°C° 0 mm 1 mps 759 mmHg 61%
21:00 +25°C° 0 mm 1 mps 759 mmHg 63%
22:00 +24°C° 0 mm 1 mps 760 mmHg 65%
23:00 +23°C° 0 mm 1 mps 760 mmHg 67%

27 Junio, Domingo

Tiempo Temperatura Precipitaciones Viento Presión Humedad
00:00 +23°C° 0 mm 1 mps 760 mmHg 68%
01:00 +22°C° 0 mm 1 mps 760 mmHg 69%
02:00 +22°C° 0 mm 1 mps 760 mmHg 71%
03:00 +22°C° 0 mm 1 mps 760 mmHg 72%
04:00 +21°C° 0 mm 1 mps 760 mmHg 73%
05:00 +23°C° 0 mm 1 mps 760 mmHg 71%
06:00 +24°C° 0 mm 1 mps 760 mmHg 68%
07:00 +25°C° 0 mm 1 mps 760 mmHg 65%
08:00 +27°C° 0 mm 1 mps 760 mmHg 60%
09:00 +28°C° 0 mm 1 mps 760 mmHg 55%
10:00 +30°C° 0 mm 1 mps 760 mmHg 50%
11:00 +31°C° 0 mm 2 mps 759 mmHg 46%
12:00 +31°C° 0 mm 2 mps 759 mmHg 43%
13:00 +32°C° 0 mm 2 mps 759 mmHg 39%
14:00 +32°C° 0 mm 2 mps 759 mmHg 39%
15:00 +32°C° 0 mm 2 mps 759 mmHg 40%
16:00 +33°C° 0 mm 3 mps 759 mmHg 40%
17:00 +31°C° 0 mm 2 mps 759 mmHg 46%
18:00 +30°C° 0 mm 2 mps 759 mmHg 51%
19:00 +28°C° 0 mm 2 mps 759 mmHg 57%
20:00 +27°C° 0 mm 2 mps 759 mmHg 58%
21:00 +26°C° 0 mm 1 mps 759 mmHg 59%
22:00 +24°C° 0 mm 1 mps 759 mmHg 59%
23:00 +24°C° 0 mm 1 mps 759 mmHg 60%

28 Junio, Lunes

Tiempo Temperatura Precipitaciones Viento Presión Humedad
00:00 +24°C° 0 mm 2 mps 759 mmHg 61%
01:00 +23°C° 0 mm 2 mps 759 mmHg 62%
02:00 +23°C° 0 mm 2 mps 759 mmHg 63%
03:00 +23°C° 0 mm 2 mps 759 mmHg 65%
04:00 +21°C° 0 mm 2 mps 759 mmHg 66%
05:00 +23°C° 0 mm 2 mps 759 mmHg 66%
06:00 +24°C° 0 mm 2 mps 759 mmHg 65%
07:00 +25°C° 0 mm 2 mps 759 mmHg 64%
08:00 +27°C° 0 mm 2 mps 759 mmHg 59%
09:00 +29°C° 0 mm 2 mps 759 mmHg 54%
10:00 +30°C° 0 mm 2 mps 759 mmHg 49%
11:00 +31°C° 0 mm 2 mps 759 mmHg 46%
12:00 +33°C° 0 mm 3 mps 759 mmHg 43%
13:00 +34°C° 0 mm 3 mps 759 mmHg 41%
14:00 +34°C° 0 mm 3 mps 759 mmHg 41%
15:00 +34°C° 0 mm 3 mps 758 mmHg 42%
16:00 +33°C° 0 mm 3 mps 758 mmHg 42%
17:00 +31°C° 0 mm 3 mps 758 mmHg 49%
18:00 +29°C° 0 mm 3 mps 758 mmHg 56%
19:00 +28°C° 0 mm 2 mps 758 mmHg 62%
20:00 +27°C° 0 mm 2 mps 758 mmHg 63%
21:00 +25°C° 0 mm 2 mps 758 mmHg 65%
22:00 +24°C° 0 mm 1 mps 758 mmHg 66%
23:00 +24°C° 0 mm 1 mps 758 mmHg 66%

29 Junio, Martes

Tiempo Temperatura Precipitaciones Viento Presión Humedad
00:00 +24°C° 0 mm 1 mps 758 mmHg 66%
01:00 +23°C° 0 mm 1 mps 758 mmHg 66%
02:00 +23°C° 0 mm 1 mps 758 mmHg 67%
03:00 +23°C° 0 mm 1 mps 758 mmHg 69%
04:00 +22°C° 0 mm 1 mps 758 mmHg 70%
05:00 +23°C° 0 mm 1 mps 758 mmHg 68%
06:00 +22°C° 0 mm 0 mps 758 mmHg 66%
07:00 +24°C° 0 mm 0 mps 759 mmHg 64%
08:00 +25°C° 0 mm 0 mps 759 mmHg 58%
09:00 +29°C° 0 mm 1 mps 759 mmHg 53%
10:00 +31°C° 0 mm 1 mps 759 mmHg 47%
11:00 +32°C° 0 mm 1 mps 758 mmHg 45%
12:00 +32°C° 0 mm 1 mps 758 mmHg 42%
13:00 +34°C° 0 mm 2 mps 758 mmHg 40%
14:00 +34°C° 0 mm 2 mps 758 mmHg 40%
15:00 +35°C° 0 mm 2 mps 757 mmHg 40%
16:00 +35°C° 0 mm 2 mps 757 mmHg 40%
17:00 +31°C° 0.1 mm 2 mps 757 mmHg 49%
18:00 +29°C° 0.1 mm 3 mps 757 mmHg 58%
19:00 +27°C° 0.1 mm 3 mps 758 mmHg 67%
20:00 +26°C° 0.1 mm 2 mps 758 mmHg 69%
21:00 +25°C° 0.1 mm 2 mps 758 mmHg 72%
22:00 +24°C° 0.1 mm 2 mps 758 mmHg 74%
23:00 +23°C° 0 mm 2 mps 758 mmHg 75%
Mostrar más

Necesitamos Su Consentimiento

Meteoprog y nuestros Proveedores de Servicios pueden almacenar y acceder a sus datos personales como cookies, identificadores de dispositivo u otras tecnologías similares de su dispositivo y procesar dichos datos para personalizar contenido y anuncios, además de ofrecer funciones de redes sociales y analizar el tráfico.

  • Almacenar y/o acceder a información en su dispositivo

    Se puede almacenar o acceder a cookies, identificadores de dispositivo u otra información de su dispositivo para los fines anteriormente indicados.

  • Anuncios y contenido personalizados, medición de anuncios y contenido, percepciones del público, y desarrollo de productos

    Los anuncios y el contenido pueden personalizarse en base a su perfil. Se pueden añadir más datos para personalizar mejor los anuncios y contenidos. Se puede medir el rendimiento de los anuncios y contenidos. Se puede obtener la percepción sobre el público que ha visto los anuncios y contenidos. Dichos datos pueden usarse para desarrollar o mejorar la experiencia del usuario, sistemas y software.

Al hacer clic en ‘Estoy De Acuerdo’ usted permitirá el uso de las cookies, identificadores de dispositivo, balizas web u otras tecnologías similares indicadas. Su configuración puede cambiarse desde el navegador de su dispositivo.

Para ciertos fines, los intereses legítimos pueden ser considerados por encima del consentimiento. Puede leer más sobre ello en nuestra Política de Privacidad y Cookies.